This is the latest recevied weather packets stored in our database for station/object YN1JLX-13. If no packets are shown the sender has not sent any weather packets the latest 10 day(s).
| Time | Temp. | Humidity | Pressure | Rain* | Wind** | Luminosity | Snow |
|---|---|---|---|---|---|---|---|
| 1778337494 | 21.11° C | 66% | 1011 hPa | 0 mm | - | - | - |
| 1778336894 | 21.67° C | 73% | 1011 hPa | 0 mm | - | - | - |
| 1778335693 | 21.11° C | 74% | 1011 hPa | 0 mm | - | - | - |
| 1778335093 | 21.67° C | 74% | 1011 hPa | 0 mm | - | - | - |
| 1778334493 | 21.67° C | 74% | 1011 hPa | 0 mm | - | - | - |
| 1778333892 | 19.44° C | 72% | 1011 hPa | 0 mm | - | - | - |
| 1778333291 | 19.44° C | 77% | 1011 hPa | 0 mm | - | - | - |
| 1778332691 | 20.56° C | 77% | 1011 hPa | 0 mm | - | - | - |
| 1778332091 | 19.44° C | 78% | 1011 hPa | 0 mm | - | - | - |
| 1778330290 | 19.44° C | 78% | 1011 hPa | 0 mm | - | - | - |
| 1778329689 | 18.89° C | 78% | 1010 hPa | 0 mm | - | - | - |
| 1778329089 | 20° C | 78% | 1010 hPa | 0 mm | - | - | - |
| 1778328489 | 17.22° C | 80% | 1010 hPa | 0 mm | - | - | - |
| 1778326688 | 18.89° C | 79% | 1010 hPa | 0 mm | - | - | - |
| 1778326088 | 18.33° C | 73% | 1010 hPa | 0 mm | - | - | - |
| 1778323686 | 17.78° C | 72% | 1010 hPa | 0 mm | - | - | - |
| 1778323086 | 18.89° C | 72% | 1010 hPa | 0 mm | - | - | - |
| 1778322485 | 18.33° C | 69% | 1009 hPa | 0 mm | - | - | - |
| 1778321884 | 19.44° C | 68% | 1009 hPa | 0 mm | - | - | - |
| 1778320684 | 18.89° C | 64% | 1009 hPa | 0 mm | - | - | - |
| 1778319483 | 20° C | 62% | 1009 hPa | 0 mm | - | - | - |
| 1778318883 | 19.44° C | 62% | 1009 hPa | 0 mm | - | - | - |
| 1778318283 | 18.89° C | 62% | 1009 hPa | 0 mm | - | - | - |
| 1778317682 | 20° C | 62% | 1009 hPa | 0 mm | - | - | - |
| 1778315881 | 18.33° C | 63% | 1009 hPa | 0 mm | - | - | - |
* Rain latest hour (hover to see other rain measurements)
** Current wind speed in m/s (hover to see current wind gust speed)